Miscellaneous Local Product
Issued by NWS North Platte, NE

Home | Current Version | Previous Version | Graphics & Text | Print | Product List | Glossary On
Versions: 1 2 3 4 5 6 7 8 9 10 11 12 13 14 15 16 17 18 19 20 21 22 23 24 25 26 27 28 29 30 31 32 33 34 35 36 37 38 39 40 41 42 43 44 45 46 47 48 49 50
557
AXUS43 KLBF 060310
MISLBF


WESTERN AND NORTH CENTRAL NEBRASKA HOURLY WEATHER ROUNDUP
NATIONAL WEATHER SERVICE NORTH PLATTE NE
900 PM CST MON DEC 05 2016

NOTE: "FAIR" INDICATES FEW OR NO CLOUDS BELOW 12,000 FEET WITH NO
SIGNIFICANT WEATHER AND/OR OBSTRUCTIONS TO VISIBILITY.

NOTE: STATIONS NOT REPORTING VARIABLES SUCH AS SKY/WEATHER OR
PRESSURE ARE PROVIDED BY RAWS AND APRS NETWORKS AND ARE NOT UNDER
NATIONAL WEATHER SERVICE QUALITY CONTROL.

...OBSERVATIONS IN AND NEAR THE EASTERN PANHANDLE OF NEBRASKA...

CITY           SKY/WX    TMP DP  RH WIND       PRES   REMARKS
PINE RIDGE     CLEAR     14  10  84 W8        29.89R WCI   3
CHADRON        MOCLDY    19  10  68 CALM      29.94R
ALLIANCE       CLEAR     19   8  62 NW24G33   29.88R WCI   2
SIDNEY         PTCLDY    20   9  62 N14       29.90S WCI   7
CRESCENT LAKE    N/A     19  10  67 NW9G16      N/A  WCI   8
$$

...OBSERVATIONS IN NORTHERN NEBRASKA AND FAR SOUTHERN SOUTH DAKOTA...

CITY           SKY/WX    TMP DP  RH WIND       PRES   REMARKS
WINNER         MOCLDY    25  15  66 NW25      29.85R WCI   9
VALENTINE      CLEAR     22  10  60 NW20G36   29.86R WCI   7
THEDFORD       PTCLDY    24  15  69 NW15G22   29.89R WCI  11
AINSWORTH      CLEAR     24  16  72 NW13G20   29.85F WCI  12
O`NEILL        CLOUDY    28  19  68 NW17G30   29.86S WCI  15
ORD            CLOUDY    29  16  58 NW22G28   29.87R WCI  15
BROKEN BOW     CLOUDY    28  17  63 NW21      29.88R WCI  15
VALENTINE NWR    N/A     21  13  72 NW13G22     N/A  WCI   9
BUTTE            N/A     24  16  72 W21G33      N/A  WCI   9
HALSEY           N/A     23  13  67 NW9G22      N/A  WCI  13
CHAMBERS         N/A     26  13  59 N7G20       N/A  WCI  18
EWING            N/A     28  21  74 NW14G22     N/A  WCI  17
$$

...OBSERVATIONS IN SOUTHWEST NEBRASKA AND FAR NORTHEAST COLORADO...

CITY           SKY/WX    TMP DP  RH WIND       PRES   REMARKS
HOLYOKE        FAIR      28  14  54 N15       29.92R WCI  17
IMPERIAL       CLOUDY    28  15  58 N20       29.91R WCI  15
OGALLALA       MOCLDY    28  16  60 NW18      29.92S WCI  15
NORTH PLATTE   CLOUDY    27  15  61 NW9       29.90R WCI  18
MCCOOK         CLOUDY    31  17  56 N14       29.90R WCI  21
LEXINGTON      CLOUDY    31  19  61 NW21G29   29.90R WCI  18
STAPLETON        N/A     23  15  70 CALM        N/A
GOTHENBURG       N/A     27  14  58 NW13        N/A  WCI  16
CALLAWAY         N/A     25  16  67 N18         N/A  WCI  12
$$

...OBSERVATIONS IN CENTRAL LINCOLN COUNTY AREA...

CITY           SKY/WX    TMP DP  RH WIND       PRES   REMARKS
N.P. AIRPORT   CLOUDY    27  15  61 NW9       29.90R WCI  18
N.P. DOWNTOWN    N/A     25  15  66 NW8         N/A  WCI  16
N.P. SOUTHEAST   N/A     26  15  63 N9G18       N/A  WCI  17
N.P. HILLCREST   N/A     25  16  67 N14G23      N/A  WCI  13
$$

...SOME OBSERVATIONS FROM AROUND THE REGION...

CITY           SKY/WX    TMP DP  RH WIND       PRES   REMARKS
LARAMIE        CLOUDY     7  -9  48 W14       29.83R WCI -10
CHEYENNE       MOCLDY    17  -6  35 NW17G25   29.87R WCI   1
DENVER         PTCLDY    24   1  36 N22       29.81R WCI   9
AKRON          PTCLDY    20   8  60 N10       29.89R WCI   9
SCOTTSBLUFF    CLEAR     20  10  65 W13       29.93R WCI   7
RAPID CITY     CLEAR     16   9  74 N14       29.86R WCI   2
BISMARCK       LGT SNOW  14  11  87 W26G38    29.70S FOG     WCI  -6
PIERRE         PTCLDY    19  11  70 W37G48    29.83R BLWGSNOWWCI  -2
SIOUX FALLS    CLOUDY    30  25  81 W18G28    29.74R WCI  18
OMAHA          LGT RAIN  43  37  79 NW18      29.77R
GRAND ISLAND   CLOUDY    32  22  66 NW28G33   29.85R WCI  18
KANSAS CITY    CLEAR     37  29  72 CALM      29.75R
WICHITA        CLEAR     37  35  92 S5        29.71R WCI  33
OKLAHOMA CITY  MOCLDY    44  42  93 S9        29.69S
DALLAS         CLOUDY    51  47  86 S7        29.72S
AMARILLO       CLEAR     48  24  39 W7        29.61R
DODGE CITY     CLEAR     39  31  72 N16       29.74R WCI  30
HAYS           CLEAR     45  27  49 NW21G28   29.73R
GOODLAND       MOCLDY    30  14  51 N23G30    29.87R WCI  17
$$




USA.gov is the U.S. government's official web portal to all federal, state and local government web resources and services.